Weather History for Friday Harbor, WA

Change the Weather History Date:

Wednesday, May 2, 2012

  Actual Average Record
Temperature  
Mean Temperature 7 °C -  
Max Temperature 13 °C 13 °C 17 °C (1997)
Min Temperature 1 °C 3 °C 1 °C (2012)
Degree Days  
Heating Degree Days 21    
Moisture  
Dew Point 3 °C    
Average Humidity 77    
Maximum Humidity 100    
Minimum Humidity 48    
Precipitation  
Precipitation 0.00 mm - - ()
Sea Level Pressure  
Sea Level Pressure 1014 hPa    
Wind  
Wind Speed 5 km/h (SE)    
Max Wind Speed 14 km/h    
Max Gust Speed -    
Visibility 16 kilometers    
Events Rain    
Averages and records for this station are not official NWS values.
T = Trace of Precipitation, MM = Missing Value Source: NWS Daily Summary

Daily Weather History Graph

Daily Weather History Graph

Search for Another Location

Airport:

Trip Planner

Search our weather history database for the weather conditions in past years. The results will help you decide how hot, cold, wet, or windy it might be!

Date:

Astronomy

May. 02, 2012 Rise Set
Actual Time 5:49 AM PDT 8:29 PM PDT
Civil Twilight 5:14 AM PDT 9:04 PM PDT
Nautical Twilight 4:29 AM PDT 9:49 PM PDT
Astronomical Twilight 3:36 AM PDT 10:43 PM PDT
Moon 4:32 PM PDT (5/2) 3:41 AM PDT (5/2)
Length of Visible Light 15h 50m
Length of Day
14h 39m
Waxing Gibbous, 84% of the Moon is Illuminated
May 2
Waxing Gibbous
May 5
Full
May 12
Last Quarter
May 20
New
May 28
First Quarter

Hourly Weather History & Observations

Time (PDT) Temp. Windchill Dew Point Humidity Pressure Visibility Wind Dir Wind Speed Gust Speed Precip Events Conditions
12:53 AM 3.3 °C - 1.7 °C 89% 1014.1 hPa 16.1 km Calm Calm - N/A   Partly Cloudy
1:53 AM 3.3 °C - 2.2 °C 93% 1014.3 hPa 16.1 km Calm Calm - N/A   Clear
2:53 AM 1.7 °C 0.1 °C 1.1 °C 96% 1014.4 hPa 16.1 km West 5.6 km/h / 1.5 m/s - N/A   Clear
3:53 AM 1.7 °C - 1.1 °C 96% 1014.7 hPa 16.1 km Calm Calm - N/A   Partly Cloudy
4:53 AM 1.1 °C - 1.1 °C 100% 1014.9 hPa 16.1 km Calm Calm - N/A   Scattered Clouds
5:53 AM 2.2 °C - 2.2 °C 100% 1015.0 hPa 16.1 km Calm Calm - N/A   Overcast
6:53 AM 3.9 °C - 2.8 °C 93% 1015.1 hPa 16.1 km Calm Calm - N/A   Mostly Cloudy
7:53 AM 7.2 °C 5.5 °C 5.0 °C 86% 1015.7 hPa 16.1 km SSE 9.3 km/h / 2.6 m/s - N/A   Overcast
8:53 AM 7.2 °C 4.5 °C 4.4 °C 82% 1015.9 hPa 16.1 km SSE 14.8 km/h / 4.1 m/s - N/A   Overcast
9:33 AM 8.0 °C 6.1 °C 5.0 °C 81% 1016.1 hPa 16.1 km SE 11.1 km/h / 3.1 m/s - 0.0 mm   Overcast
9:53 AM 8.3 °C - 5.0 °C 80% 1016.1 hPa 16.1 km ESE 9.3 km/h / 2.6 m/s - 0.0 mm Rain Light Rain
10:53 AM 8.3 °C - 4.4 °C 77% 1016.1 hPa 16.1 km ESE 7.4 km/h / 2.1 m/s - 0.0 mm   Mostly Cloudy
11:05 AM 9.0 °C - 4.0 °C 71% 1016.1 hPa 16.1 km SE 13.0 km/h / 3.6 m/s - N/A   Overcast
11:53 AM 8.9 °C - 5.0 °C 77% 1015.9 hPa 16.1 km ESE 11.1 km/h / 3.1 m/s - 0.0 mm   Overcast
12:36 PM 10.0 °C - 4.0 °C 66% 1015.5 hPa 16.1 km ESE 5.6 km/h / 1.5 m/s - N/A   Overcast
12:53 PM 10.6 °C - 3.9 °C 63% 1015.3 hPa 16.1 km SE 7.4 km/h / 2.1 m/s - N/A   Overcast
1:53 PM 11.7 °C - 3.9 °C 59% 1014.7 hPa 16.1 km SE 11.1 km/h / 3.1 m/s - N/A   Clear
2:53 PM 12.2 °C - 3.9 °C 57% 1014.3 hPa 16.1 km SE 9.3 km/h / 2.6 m/s - N/A   Clear
3:53 PM 11.7 °C - 3.3 °C 57% 1013.6 hPa 16.1 km SSE 9.3 km/h / 2.6 m/s - N/A   Clear
4:53 PM 12.2 °C - 2.8 °C 53% 1012.8 hPa 16.1 km ESE 9.3 km/h / 2.6 m/s - N/A   Clear
5:53 PM 12.2 °C - 2.2 °C 51% 1012.2 hPa 16.1 km NE 7.4 km/h / 2.1 m/s - N/A   Clear
6:53 PM 11.7 °C - 1.1 °C 48% 1011.4 hPa 16.1 km Calm Calm - N/A   Clear
7:53 PM 10.0 °C - 3.3 °C 63% 1010.8 hPa 16.1 km Calm Calm - N/A   Partly Cloudy
8:53 PM 8.9 °C - 3.3 °C 68% 1010.4 hPa 16.1 km NNW 7.4 km/h / 2.1 m/s - N/A   Clear
9:53 PM 6.1 °C - 3.3 °C 82% 1010.0 hPa 16.1 km Calm Calm - N/A   Scattered Clouds
10:53 PM 5.0 °C - 3.3 °C 89% 1009.4 hPa 16.1 km Calm Calm - N/A   Partly Cloudy
11:53 PM 6.1 °C - 4.4 °C 89% 1008.8 hPa 16.1 km Calm Calm - N/A   Scattered Clouds